Year,Month,Day,Hour,Minute,Value (Times are PST for temperature in C)
2011,06,17,00,00,9.40
2011,06,17,00,01,9.40
2011,06,17,00,02,9.40
2011,06,17,00,03,9.40
2011,06,17,00,04,9.40
2011,06,17,00,05,9.40
2011,06,17,00,06,9.40
2011,06,17,00,07,9.40
2011,06,17,00,08,9.40
2011,06,17,00,09,9.40
2011,06,17,00,10,9.40
2011,06,17,00,11,9.40
2011,06,17,00,12,9.40
2011,06,17,00,13,9.30
2011,06,17,00,14,9.30
2011,06,17,00,15,9.30
2011,06,17,00,16,9.30
2011,06,17,00,17,9.30
2011,06,17,00,18,9.30
2011,06,17,00,19,9.30
2011,06,17,00,20,9.30
2011,06,17,00,21,9.30
2011,06,17,00,22,9.20
2011,06,17,00,23,9.20
2011,06,17,00,24,9.20
2011,06,17,00,25,9.20
2011,06,17,00,26,9.20
2011,06,17,00,27,9.20
2011,06,17,00,28,9.20
2011,06,17,00,29,9.10
2011,06,17,00,30,9.10
2011,06,17,00,31,9.10
2011,06,17,00,32,9.10
2011,06,17,00,33,9.10
2011,06,17,00,34,9.10
2011,06,17,00,35,9.00
2011,06,17,00,36,9.00
2011,06,17,00,37,9.00
2011,06,17,00,38,9.00
2011,06,17,00,39,8.90
2011,06,17,00,40,8.90
2011,06,17,00,41,8.90
2011,06,17,00,42,8.90
2011,06,17,00,43,8.90
2011,06,17,00,44,8.90
2011,06,17,00,45,8.80
2011,06,17,00,46,8.80
2011,06,17,00,47,8.80
2011,06,17,00,48,8.80
2011,06,17,00,49,8.80
2011,06,17,00,50,8.80
2011,06,17,00,51,8.80
2011,06,17,00,52,8.80
2011,06,17,00,53,8.70
2011,06,17,00,54,8.70
2011,06,17,00,55,8.70
2011,06,17,00,56,8.70
2011,06,17,00,57,8.70
2011,06,17,00,58,8.70
2011,06,17,00,59,8.70
2011,06,17,01,00,8.70
2011,06,17,01,01,8.60
2011,06,17,01,02,8.60
2011,06,17,01,03,8.60
2011,06,17,01,04,8.60
2011,06,17,01,05,8.60
2011,06,17,01,06,8.60
2011,06,17,01,07,8.60
2011,06,17,01,08,8.60
2011,06,17,01,09,8.50
2011,06,17,01,10,8.50
2011,06,17,01,11,8.50
2011,06,17,01,12,8.50
2011,06,17,01,13,8.40
2011,06,17,01,14,8.40
2011,06,17,01,15,8.40
2011,06,17,01,16,8.40
2011,06,17,01,17,8.40
2011,06,17,01,18,8.40
2011,06,17,01,19,8.40
2011,06,17,01,20,8.30
2011,06,17,01,21,8.30
2011,06,17,01,22,8.30
2011,06,17,01,23,8.30
2011,06,17,01,24,8.30
2011,06,17,01,25,8.30
2011,06,17,01,26,8.30
2011,06,17,01,27,8.30
2011,06,17,01,28,8.30
2011,06,17,01,29,8.20
2011,06,17,01,30,8.20
2011,06,17,01,31,8.20
2011,06,17,01,32,8.20
2011,06,17,01,33,8.20
2011,06,17,01,34,8.20
2011,06,17,01,35,8.10
2011,06,17,01,36,8.10
2011,06,17,01,37,8.10
2011,06,17,01,38,8.10
2011,06,17,01,39,8.10
2011,06,17,01,40,8.10
2011,06,17,01,41,8.00
2011,06,17,01,42,8.00
2011,06,17,01,43,8.00
2011,06,17,01,44,8.00
2011,06,17,01,45,7.90
2011,06,17,01,46,7.90
2011,06,17,01,47,7.90
2011,06,17,01,48,7.90
2011,06,17,01,49,7.90
2011,06,17,01,50,7.90
2011,06,17,01,51,7.90
2011,06,17,01,52,7.90
2011,06,17,01,53,7.80
2011,06,17,01,54,7.80
2011,06,17,01,55,7.80
2011,06,17,01,56,7.80
2011,06,17,01,57,7.80
2011,06,17,01,58,7.80
2011,06,17,01,59,7.80
2011,06,17,02,00,7.80
2011,06,17,02,01,7.80
2011,06,17,02,02,7.80
2011,06,17,02,03,7.70
2011,06,17,02,04,7.70
2011,06,17,02,05,7.70
2011,06,17,02,06,7.70
2011,06,17,02,07,7.70
2011,06,17,02,08,7.70
2011,06,17,02,09,7.70
2011,06,17,02,10,7.60
2011,06,17,02,11,7.60
2011,06,17,02,12,7.60
2011,06,17,02,13,7.60
2011,06,17,02,14,7.60
2011,06,17,02,15,7.60
2011,06,17,02,16,7.60
2011,06,17,02,17,7.60
2011,06,17,02,18,7.60
2011,06,17,02,19,7.50
2011,06,17,02,20,7.50
2011,06,17,02,21,7.50
2011,06,17,02,22,7.50
2011,06,17,02,23,7.50
2011,06,17,02,24,7.50
2011,06,17,02,25,7.40
2011,06,17,02,26,7.40
2011,06,17,02,27,7.40
2011,06,17,02,28,7.40
2011,06,17,02,29,7.40
2011,06,17,02,30,7.40
2011,06,17,02,31,7.40
2011,06,17,02,32,7.40
2011,06,17,02,33,7.40
2011,06,17,02,34,7.40
2011,06,17,02,35,7.40
2011,06,17,02,36,7.30
2011,06,17,02,37,7.30
2011,06,17,02,38,7.30
2011,06,17,02,39,7.30
2011,06,17,02,40,7.30
2011,06,17,02,41,7.30
2011,06,17,02,42,7.30
2011,06,17,02,43,7.30
2011,06,17,02,44,7.30
2011,06,17,02,45,7.30
2011,06,17,02,46,7.30
2011,06,17,02,47,7.30
2011,06,17,02,48,7.30
2011,06,17,02,49,7.20
2011,06,17,02,50,7.20
2011,06,17,02,51,7.20
2011,06,17,02,52,7.20
2011,06,17,02,53,7.20
2011,06,17,02,54,7.20
2011,06,17,02,55,7.20
2011,06,17,02,56,7.20
2011,06,17,02,57,7.20
2011,06,17,02,58,7.20
2011,06,17,02,59,7.20
2011,06,17,03,00,7.20
2011,06,17,03,01,7.20
2011,06,17,03,02,7.20
2011,06,17,03,03,7.20
2011,06,17,03,04,7.10
2011,06,17,03,05,7.10
2011,06,17,03,06,7.10
2011,06,17,03,07,7.10
2011,06,17,03,08,7.10
2011,06,17,03,09,7.10
2011,06,17,03,10,7.10
2011,06,17,03,11,7.10
2011,06,17,03,12,7.10
2011,06,17,03,13,7.10
2011,06,17,03,14,7.00
2011,06,17,03,15,7.00
2011,06,17,03,16,7.00
2011,06,17,03,17,7.00
2011,06,17,03,18,7.00
2011,06,17,03,19,7.00
2011,06,17,03,20,6.90
2011,06,17,03,21,6.90
2011,06,17,03,22,6.90
2011,06,17,03,23,6.90
2011,06,17,03,24,6.90
2011,06,17,03,25,6.90
2011,06,17,03,26,6.90
2011,06,17,03,27,6.90
2011,06,17,03,28,6.80
2011,06,17,03,29,6.80
2011,06,17,03,30,6.80
2011,06,17,03,31,6.80
2011,06,17,03,32,6.80
2011,06,17,03,33,6.80
2011,06,17,03,34,6.80
2011,06,17,03,35,6.80
2011,06,17,03,36,6.80
2011,06,17,03,37,6.80
2011,06,17,03,38,6.80
2011,06,17,03,39,6.80
2011,06,17,03,40,6.80
2011,06,17,03,41,6.80
2011,06,17,03,42,6.80
2011,06,17,03,43,6.70
2011,06,17,03,44,6.70
2011,06,17,03,45,6.70
2011,06,17,03,46,6.70
2011,06,17,03,47,6.70
2011,06,17,03,48,6.70
2011,06,17,03,49,6.70
2011,06,17,03,50,6.70
2011,06,17,03,51,6.70
2011,06,17,03,52,6.70
2011,06,17,03,53,6.70
2011,06,17,03,54,6.70
2011,06,17,03,55,6.70
2011,06,17,03,56,6.70
2011,06,17,03,57,6.70
2011,06,17,03,58,6.70
2011,06,17,03,59,6.70
2011,06,17,04,00,6.70
2011,06,17,04,01,6.70
2011,06,17,04,02,6.70
2011,06,17,04,03,6.70
2011,06,17,04,04,6.70
2011,06,17,04,05,6.70
2011,06,17,04,06,6.70
2011,06,17,04,07,6.60
2011,06,17,04,08,6.60
2011,06,17,04,09,6.60
2011,06,17,04,10,6.60
2011,06,17,04,11,6.60
2011,06,17,04,12,6.60
2011,06,17,04,13,6.60
2011,06,17,04,14,6.60
2011,06,17,04,15,6.60
2011,06,17,04,16,6.60
2011,06,17,04,17,6.60
2011,06,17,04,18,6.50
2011,06,17,04,19,6.50
2011,06,17,04,20,6.50
2011,06,17,04,21,6.50
2011,06,17,04,22,6.50
2011,06,17,04,23,6.50
2011,06,17,04,24,6.40
2011,06,17,04,25,6.40
2011,06,17,04,26,6.40
2011,06,17,04,27,6.40
2011,06,17,04,28,6.40
2011,06,17,04,29,6.40
2011,06,17,04,30,6.40
2011,06,17,04,31,6.40
2011,06,17,04,32,6.40
2011,06,17,04,33,6.40
2011,06,17,04,34,6.40
2011,06,17,04,35,6.40
2011,06,17,04,36,6.40
2011,06,17,04,37,6.40
2011,06,17,04,38,6.40
2011,06,17,04,39,6.40
2011,06,17,04,40,6.40
2011,06,17,04,41,6.40
2011,06,17,04,42,6.40
2011,06,17,04,43,6.40
2011,06,17,04,44,6.40
2011,06,17,04,45,6.40
2011,06,17,04,46,6.40
2011,06,17,04,47,6.40
2011,06,17,04,48,6.40
2011,06,17,04,49,6.40
2011,06,17,04,50,6.40
2011,06,17,04,51,6.40
2011,06,17,04,52,6.40
2011,06,17,04,53,6.40
2011,06,17,04,54,6.40
2011,06,17,04,55,6.40
2011,06,17,04,56,6.40
2011,06,17,04,57,6.40
2011,06,17,04,58,6.40
2011,06,17,04,59,6.40
2011,06,17,05,00,6.30
2011,06,17,05,01,6.30
2011,06,17,05,02,6.30
2011,06,17,05,03,6.30
2011,06,17,05,04,6.30
2011,06,17,05,05,6.30
2011,06,17,05,06,6.30
2011,06,17,05,07,6.30
2011,06,17,05,08,6.30
2011,06,17,05,09,6.20
2011,06,17,05,10,6.20
2011,06,17,05,11,6.20
2011,06,17,05,12,6.20
2011,06,17,05,13,6.20
2011,06,17,05,14,6.20
2011,06,17,05,15,6.20
2011,06,17,05,16,6.20
2011,06,17,05,17,6.20
2011,06,17,05,18,6.20
2011,06,17,05,19,6.20
2011,06,17,05,20,6.20
2011,06,17,05,21,6.20
2011,06,17,05,22,6.20
2011,06,17,05,23,6.20
2011,06,17,05,24,6.20
2011,06,17,05,25,6.20
2011,06,17,05,26,6.20
2011,06,17,05,27,6.10
2011,06,17,05,28,6.10
2011,06,17,05,29,6.10
2011,06,17,05,30,6.10
2011,06,17,05,31,6.10
2011,06,17,05,32,6.10
2011,06,17,05,33,6.10
2011,06,17,05,34,6.10
2011,06,17,05,35,6.10
2011,06,17,05,36,6.10
2011,06,17,05,37,6.10
2011,06,17,05,38,6.10
2011,06,17,05,39,6.10
2011,06,17,05,40,6.10
2011,06,17,05,41,6.10
2011,06,17,05,42,6.10
2011,06,17,05,43,6.10
2011,06,17,05,44,6.10
2011,06,17,05,45,6.10
2011,06,17,05,46,6.10
2011,06,17,05,47,6.10
2011,06,17,05,48,6.10
2011,06,17,05,49,6.10
2011,06,17,05,50,6.10
2011,06,17,05,51,6.10
2011,06,17,05,52,6.10
2011,06,17,05,53,6.10
2011,06,17,05,54,6.10
2011,06,17,05,55,6.10
2011,06,17,05,56,6.10
2011,06,17,05,57,6.10
2011,06,17,05,58,6.10
2011,06,17,05,59,6.10
2011,06,17,06,00,6.10
2011,06,17,06,01,6.10
2011,06,17,06,02,6.10
2011,06,17,06,03,6.10
2011,06,17,06,04,6.20
2011,06,17,06,05,6.20
2011,06,17,06,06,6.20
2011,06,17,06,07,6.20
2011,06,17,06,08,6.20
2011,06,17,06,09,6.20
2011,06,17,06,10,6.20
2011,06,17,06,11,6.20
2011,06,17,06,12,6.20
2011,06,17,06,13,6.20
2011,06,17,06,14,6.20
2011,06,17,06,15,6.20
2011,06,17,06,16,6.20
2011,06,17,06,17,6.20
2011,06,17,06,18,6.20
2011,06,17,06,19,6.20
2011,06,17,06,20,6.30
2011,06,17,06,21,6.30
2011,06,17,06,22,6.30
2011,06,17,06,23,6.30
2011,06,17,06,24,6.30
2011,06,17,06,25,6.30
2011,06,17,06,26,6.30
2011,06,17,06,27,6.30
2011,06,17,06,28,6.30
2011,06,17,06,29,6.30
2011,06,17,06,30,6.30
2011,06,17,06,31,6.40
2011,06,17,06,32,6.40
2011,06,17,06,33,6.40
2011,06,17,06,34,6.40
2011,06,17,06,35,6.40
2011,06,17,06,36,6.40
2011,06,17,06,37,6.50
2011,06,17,06,38,6.50
2011,06,17,06,39,6.50
2011,06,17,06,40,6.60
2011,06,17,06,41,6.60
2011,06,17,06,42,6.60
2011,06,17,06,43,6.70
2011,06,17,06,44,6.70
2011,06,17,06,45,6.70
2011,06,17,06,46,6.80
2011,06,17,06,47,6.80
2011,06,17,06,48,6.80
2011,06,17,06,49,6.90
2011,06,17,06,50,6.90
2011,06,17,06,51,7.00
2011,06,17,06,52,7.10
2011,06,17,06,53,7.20
2011,06,17,06,54,7.20
2011,06,17,06,55,7.30
2011,06,17,06,56,7.40
2011,06,17,06,57,7.50
2011,06,17,06,58,7.60
2011,06,17,06,59,7.70
2011,06,17,07,00,7.70
2011,06,17,07,01,7.80
2011,06,17,07,02,7.80
2011,06,17,07,03,7.90
2011,06,17,07,04,7.90
2011,06,17,07,05,7.90
2011,06,17,07,06,8.00
2011,06,17,07,07,8.10
2011,06,17,07,08,8.20
2011,06,17,07,09,8.30
2011,06,17,07,10,8.30
2011,06,17,07,11,8.50
2011,06,17,07,12,8.60
2011,06,17,07,13,8.70
2011,06,17,07,14,8.80
2011,06,17,07,15,8.90
2011,06,17,07,16,9.00
2011,06,17,07,17,9.00
2011,06,17,07,18,9.10
2011,06,17,07,19,9.10
2011,06,17,07,20,9.20
2011,06,17,07,21,9.30
2011,06,17,07,22,9.30
2011,06,17,07,23,9.40
2011,06,17,07,24,9.40
2011,06,17,07,25,9.50
2011,06,17,07,26,9.50
2011,06,17,07,27,9.60
2011,06,17,07,28,9.60
2011,06,17,07,29,9.60
2011,06,17,07,30,9.70
2011,06,17,07,31,9.70
2011,06,17,07,32,9.70
2011,06,17,07,33,9.80
2011,06,17,07,34,9.80
2011,06,17,07,35,9.80
2011,06,17,07,36,9.90
2011,06,17,07,37,9.90
2011,06,17,07,38,9.90
2011,06,17,07,39,10.00
2011,06,17,07,40,10.00
2011,06,17,07,41,10.10
2011,06,17,07,42,10.10
2011,06,17,07,43,10.20
2011,06,17,07,44,10.20
2011,06,17,07,45,10.20
2011,06,17,07,46,10.30
2011,06,17,07,47,10.30
2011,06,17,07,48,10.40
2011,06,17,07,49,10.40
2011,06,17,07,50,10.50
2011,06,17,07,51,10.60
2011,06,17,07,52,10.80
2011,06,17,07,53,10.90
2011,06,17,07,54,11.00
2011,06,17,07,55,11.10
2011,06,17,07,56,11.20
2011,06,17,07,57,11.30
2011,06,17,07,58,11.40
2011,06,17,07,59,11.50
2011,06,17,08,00,11.60
2011,06,17,08,01,11.70
2011,06,17,08,02,11.80
2011,06,17,08,03,11.80
2011,06,17,08,04,11.90
2011,06,17,08,05,11.90
2011,06,17,08,06,11.90
2011,06,17,08,07,12.00
2011,06,17,08,08,12.00
2011,06,17,08,09,12.10
2011,06,17,08,10,12.10
2011,06,17,08,11,12.10
2011,06,17,08,12,12.10
2011,06,17,08,13,12.10
2011,06,17,08,14,12.10
2011,06,17,08,15,12.10
2011,06,17,08,16,12.10
2011,06,17,08,17,12.10
2011,06,17,08,18,12.10
2011,06,17,08,19,12.10
2011,06,17,08,20,12.10
2011,06,17,08,21,12.10
2011,06,17,08,22,12.10
2011,06,17,08,23,12.10
2011,06,17,08,24,12.10
2011,06,17,08,25,12.20
2011,06,17,08,26,12.20
2011,06,17,08,27,12.30
2011,06,17,08,28,12.30
2011,06,17,08,29,12.40
2011,06,17,08,30,12.40
2011,06,17,08,31,12.40
2011,06,17,08,32,12.40
2011,06,17,08,33,12.40
2011,06,17,08,34,12.40
2011,06,17,08,35,12.50
2011,06,17,08,36,12.50
2011,06,17,08,37,12.60
2011,06,17,08,38,12.50
2011,06,17,08,39,12.50
2011,06,17,08,40,12.50
2011,06,17,08,41,12.50
2011,06,17,08,42,12.50
2011,06,17,08,43,12.50
2011,06,17,08,44,12.50
2011,06,17,08,45,12.60
2011,06,17,08,46,12.60
2011,06,17,08,47,12.60
2011,06,17,08,48,12.60
2011,06,17,08,49,12.60
2011,06,17,08,50,12.70
2011,06,17,08,51,12.70
2011,06,17,08,52,12.70
2011,06,17,08,53,12.80
2011,06,17,08,54,12.80
2011,06,17,08,55,12.80
2011,06,17,08,56,12.80
2011,06,17,08,57,12.80
2011,06,17,08,58,12.90
2011,06,17,08,59,12.90
2011,06,17,09,00,12.90
2011,06,17,09,01,12.90
2011,06,17,09,02,12.90
2011,06,17,09,03,12.90
2011,06,17,09,04,12.80
2011,06,17,09,05,12.80
2011,06,17,09,06,12.80
2011,06,17,09,07,12.80
2011,06,17,09,08,12.80
2011,06,17,09,09,12.80
2011,06,17,09,10,12.90
2011,06,17,09,11,13.00
2011,06,17,09,12,13.10
2011,06,17,09,13,13.20
2011,06,17,09,14,13.30
2011,06,17,09,15,13.50
2011,06,17,09,16,13.60
2011,06,17,09,17,13.70
2011,06,17,09,18,13.80
2011,06,17,09,19,13.80
2011,06,17,09,20,13.90
2011,06,17,09,21,13.90
2011,06,17,09,22,14.00
2011,06,17,09,23,14.10
2011,06,17,09,24,14.10
2011,06,17,09,25,14.20
2011,06,17,09,26,14.30
2011,06,17,09,27,14.40
2011,06,17,09,28,14.40
2011,06,17,09,29,14.50
2011,06,17,09,30,14.40
2011,06,17,09,31,14.40
2011,06,17,09,32,14.40
2011,06,17,09,33,14.40
2011,06,17,09,34,14.30
2011,06,17,09,35,14.30
2011,06,17,09,36,14.20
2011,06,17,09,37,14.20
2011,06,17,09,38,14.20
2011,06,17,09,39,14.20
2011,06,17,09,40,14.10
2011,06,17,09,41,14.10
2011,06,17,09,42,14.10
2011,06,17,09,43,14.10
2011,06,17,09,44,14.00
2011,06,17,09,45,14.00
2011,06,17,09,46,14.00
2011,06,17,09,47,14.00
2011,06,17,09,48,14.10
2011,06,17,09,49,14.10
2011,06,17,09,50,14.10
2011,06,17,09,51,14.10
2011,06,17,09,52,14.10
2011,06,17,09,53,14.10
2011,06,17,09,54,14.20
2011,06,17,09,55,14.30
2011,06,17,09,56,14.30
2011,06,17,09,57,14.40
2011,06,17,09,58,14.40
2011,06,17,09,59,14.50
2011,06,17,10,00,14.50
2011,06,17,10,01,14.60
2011,06,17,10,02,14.60
2011,06,17,10,03,14.60
2011,06,17,10,04,14.60
2011,06,17,10,05,14.60
2011,06,17,10,06,14.60
2011,06,17,10,07,14.50
2011,06,17,10,08,14.40
2011,06,17,10,09,14.40
2011,06,17,10,10,14.40
2011,06,17,10,11,14.40
2011,06,17,10,12,14.50
2011,06,17,10,13,14.50
2011,06,17,10,14,14.60
2011,06,17,10,15,14.60
2011,06,17,10,16,14.60
2011,06,17,10,17,14.70
2011,06,17,10,18,14.70
2011,06,17,10,19,14.70
2011,06,17,10,20,14.80
2011,06,17,10,21,14.80
2011,06,17,10,22,14.90
2011,06,17,10,23,14.80
2011,06,17,10,24,14.80
2011,06,17,10,25,14.80
2011,06,17,10,26,14.70
2011,06,17,10,27,14.80
2011,06,17,10,28,14.80
2011,06,17,10,29,14.80
2011,06,17,10,30,14.80
2011,06,17,10,31,14.80
2011,06,17,10,32,14.70
2011,06,17,10,33,14.70
2011,06,17,10,34,14.70
2011,06,17,10,35,14.70
2011,06,17,10,36,14.70
2011,06,17,10,37,14.80
2011,06,17,10,38,14.80
2011,06,17,10,39,14.90
2011,06,17,10,40,15.00
2011,06,17,10,41,15.00
2011,06,17,10,42,15.00
2011,06,17,10,43,15.00
2011,06,17,10,44,15.00
2011,06,17,10,45,15.10
2011,06,17,10,46,15.10
2011,06,17,10,47,15.20
2011,06,17,10,48,15.20
2011,06,17,10,49,15.20
2011,06,17,10,50,15.20
2011,06,17,10,51,15.20
2011,06,17,10,52,15.20
2011,06,17,10,53,15.20
2011,06,17,10,54,15.20
2011,06,17,10,55,15.20
2011,06,17,10,56,15.20
2011,06,17,10,57,15.20
2011,06,17,10,58,15.10
2011,06,17,10,59,15.10
2011,06,17,11,00,15.10
2011,06,17,11,01,15.20
2011,06,17,11,02,15.20
2011,06,17,11,03,15.20
2011,06,17,11,04,15.30
2011,06,17,11,05,15.30
2011,06,17,11,06,15.40
2011,06,17,11,07,15.40
2011,06,17,11,08,15.40
2011,06,17,11,09,15.50
2011,06,17,11,10,15.50
2011,06,17,11,11,15.60
2011,06,17,11,12,15.70
2011,06,17,11,13,15.70
2011,06,17,11,14,15.70
2011,06,17,11,15,15.80
2011,06,17,11,16,15.80
2011,06,17,11,17,15.90
2011,06,17,11,18,15.90
2011,06,17,11,19,16.00
2011,06,17,11,20,16.00
2011,06,17,11,21,16.10
2011,06,17,11,22,16.10
2011,06,17,11,23,16.10
2011,06,17,11,24,16.10
2011,06,17,11,25,16.20
2011,06,17,11,26,16.20
2011,06,17,11,27,16.30
2011,06,17,11,28,16.30
2011,06,17,11,29,16.30
2011,06,17,11,30,16.30
2011,06,17,11,31,16.40
2011,06,17,11,32,16.40
2011,06,17,11,33,16.50
2011,06,17,11,34,16.50
2011,06,17,11,35,16.50
2011,06,17,11,36,16.50
2011,06,17,11,37,16.50
2011,06,17,11,38,16.40
2011,06,17,11,39,16.50
2011,06,17,11,40,16.50
2011,06,17,11,41,16.50
2011,06,17,11,42,16.50
2011,06,17,11,43,16.40
2011,06,17,11,44,16.40
2011,06,17,11,45,16.50
2011,06,17,11,46,16.50
2011,06,17,11,47,16.60
2011,06,17,11,48,16.60
2011,06,17,11,49,16.60
2011,06,17,11,50,16.60
2011,06,17,11,51,16.70
2011,06,17,11,52,16.70
2011,06,17,11,53,16.70
2011,06,17,11,54,16.70
2011,06,17,11,55,16.80
2011,06,17,11,56,16.90
2011,06,17,11,57,16.90
2011,06,17,11,58,17.00
2011,06,17,11,59,17.00
2011,06,17,12,00,17.00
2011,06,17,12,01,17.10
2011,06,17,12,02,17.20
2011,06,17,12,03,17.20
2011,06,17,12,04,17.20
2011,06,17,12,05,17.20
2011,06,17,12,06,17.20
2011,06,17,12,07,17.20
2011,06,17,12,08,17.30
2011,06,17,12,09,17.40
2011,06,17,12,10,17.60
2011,06,17,12,11,17.70
2011,06,17,12,12,17.60
2011,06,17,12,13,17.60
2011,06,17,12,14,17.70
2011,06,17,12,15,17.80
2011,06,17,12,16,17.80
2011,06,17,12,17,17.80
2011,06,17,12,18,17.80
2011,06,17,12,19,17.80
2011,06,17,12,20,17.70
2011,06,17,12,21,17.60
2011,06,17,12,22,17.60
2011,06,17,12,23,17.60
2011,06,17,12,24,17.70
2011,06,17,12,25,17.60
2011,06,17,12,26,17.60
2011,06,17,12,27,17.60
2011,06,17,12,28,17.60
2011,06,17,12,29,17.60
2011,06,17,12,30,17.60
2011,06,17,12,31,17.70
2011,06,17,12,32,17.70
2011,06,17,12,33,17.80
2011,06,17,12,34,17.80
2011,06,17,12,35,17.80
2011,06,17,12,36,17.80
2011,06,17,12,37,17.80
2011,06,17,12,38,17.80
2011,06,17,12,39,17.70
2011,06,17,12,40,17.70
2011,06,17,12,41,17.60
2011,06,17,12,42,17.60
2011,06,17,12,43,17.60
2011,06,17,12,44,17.70
2011,06,17,12,45,17.70
2011,06,17,12,46,17.70
2011,06,17,12,47,17.60
2011,06,17,12,48,17.60
2011,06,17,12,49,17.60
2011,06,17,12,50,17.60
2011,06,17,12,51,17.70
2011,06,17,12,52,17.60
2011,06,17,12,53,17.60
2011,06,17,12,54,17.70
2011,06,17,12,55,17.70
2011,06,17,12,56,17.80
2011,06,17,12,57,17.90
2011,06,17,12,58,18.00
2011,06,17,12,59,18.10
2011,06,17,13,00,18.20
2011,06,17,13,01,18.30
2011,06,17,13,02,18.40
2011,06,17,13,03,18.50
2011,06,17,13,04,18.50
2011,06,17,13,05,18.50
2011,06,17,13,06,18.50
2011,06,17,13,07,18.60
2011,06,17,13,08,18.60
2011,06,17,13,09,18.60
2011,06,17,13,10,18.60
2011,06,17,13,11,18.70
2011,06,17,13,12,18.70
2011,06,17,13,13,18.60
2011,06,17,13,14,18.60
2011,06,17,13,15,18.60
2011,06,17,13,16,18.70
2011,06,17,13,17,18.70
2011,06,17,13,18,18.80
2011,06,17,13,19,18.80
2011,06,17,13,20,18.80
2011,06,17,13,21,18.90
2011,06,17,13,22,19.00
2011,06,17,13,23,19.10
2011,06,17,13,24,19.10
2011,06,17,13,25,19.20
2011,06,17,13,26,19.30
2011,06,17,13,27,19.40
2011,06,17,13,28,19.40
2011,06,17,13,29,19.50
2011,06,17,13,30,19.50
2011,06,17,13,31,19.40
2011,06,17,13,32,19.20
2011,06,17,13,33,19.00
2011,06,17,13,34,18.80
2011,06,17,13,35,18.70
2011,06,17,13,36,18.70
2011,06,17,13,37,18.70
2011,06,17,13,38,18.80
2011,06,17,13,39,18.80
2011,06,17,13,40,18.80
2011,06,17,13,41,18.80
2011,06,17,13,42,18.90
2011,06,17,13,43,19.00
2011,06,17,13,44,19.10
2011,06,17,13,45,19.10
2011,06,17,13,46,19.20
2011,06,17,13,47,19.30
2011,06,17,13,48,19.30
2011,06,17,13,49,19.40
2011,06,17,13,50,19.40
2011,06,17,13,51,19.50
2011,06,17,13,52,19.50
2011,06,17,13,53,19.50
2011,06,17,13,54,19.40
2011,06,17,13,55,19.30
2011,06,17,13,56,19.30
2011,06,17,13,57,19.30
2011,06,17,13,58,19.30
2011,06,17,13,59,19.30
2011,06,17,14,00,19.20
2011,06,17,14,01,19.20
2011,06,17,14,02,19.20
2011,06,17,14,03,19.10
2011,06,17,14,04,18.90
2011,06,17,14,05,18.70
2011,06,17,14,06,18.60
2011,06,17,14,07,18.50
2011,06,17,14,08,18.40
2011,06,17,14,09,18.40
2011,06,17,14,10,18.40
2011,06,17,14,11,18.30
2011,06,17,14,12,18.20
2011,06,17,14,13,18.00
2011,06,17,14,14,17.90
2011,06,17,14,15,17.90
2011,06,17,14,16,17.90
2011,06,17,14,17,17.90
2011,06,17,14,18,17.80
2011,06,17,14,19,17.70
2011,06,17,14,20,17.60
2011,06,17,14,21,17.40
2011,06,17,14,22,17.30
2011,06,17,14,23,17.30
2011,06,17,14,24,17.20
2011,06,17,14,25,17.10
2011,06,17,14,26,17.10
2011,06,17,14,27,17.20
2011,06,17,14,28,17.20
2011,06,17,14,29,17.30
2011,06,17,14,30,17.40
2011,06,17,14,31,17.40
2011,06,17,14,32,17.40
2011,06,17,14,33,17.40
2011,06,17,14,34,17.40
2011,06,17,14,35,17.40
2011,06,17,14,36,17.40
2011,06,17,14,37,17.30
2011,06,17,14,38,17.20
2011,06,17,14,39,17.10
2011,06,17,14,40,17.00
2011,06,17,14,41,16.90
2011,06,17,14,42,16.90
2011,06,17,14,43,16.90
2011,06,17,14,44,16.90
2011,06,17,14,45,16.90
2011,06,17,14,46,17.00
2011,06,17,14,47,17.10
2011,06,17,14,48,17.10
2011,06,17,14,49,17.10
2011,06,17,14,50,17.10
2011,06,17,14,51,17.10
2011,06,17,14,52,17.10
2011,06,17,14,53,17.10
2011,06,17,14,54,17.10
2011,06,17,14,55,17.10
2011,06,17,14,56,17.20
2011,06,17,14,57,17.30
2011,06,17,14,58,17.40
2011,06,17,14,59,17.50
2011,06,17,15,00,17.50
2011,06,17,15,01,17.60
2011,06,17,15,02,17.70
2011,06,17,15,03,17.70
2011,06,17,15,04,17.70
2011,06,17,15,05,17.80
2011,06,17,15,06,17.90
2011,06,17,15,07,18.00
2011,06,17,15,08,18.00
2011,06,17,15,09,18.10
2011,06,17,15,10,18.20
2011,06,17,15,11,18.20
2011,06,17,15,12,18.20
2011,06,17,15,13,18.30
2011,06,17,15,14,18.30
2011,06,17,15,15,18.40
2011,06,17,15,16,18.40
2011,06,17,15,17,18.40
2011,06,17,15,18,18.40
2011,06,17,15,19,18.30
2011,06,17,15,20,18.20
2011,06,17,15,21,18.10
2011,06,17,15,22,17.90
2011,06,17,15,23,17.80
2011,06,17,15,24,17.80
2011,06,17,15,25,17.70
2011,06,17,15,26,17.70
2011,06,17,15,27,17.70
2011,06,17,15,28,17.70
2011,06,17,15,29,17.70
2011,06,17,15,30,17.80
2011,06,17,15,31,17.80
2011,06,17,15,32,17.80
2011,06,17,15,33,17.80
2011,06,17,15,34,17.70
2011,06,17,15,35,17.70
2011,06,17,15,36,17.70
2011,06,17,15,37,17.80
2011,06,17,15,38,17.80
2011,06,17,15,39,17.70
2011,06,17,15,40,17.70
2011,06,17,15,41,17.60
2011,06,17,15,42,17.60
2011,06,17,15,43,17.60
2011,06,17,15,44,17.50
2011,06,17,15,45,17.50
2011,06,17,15,46,17.40
2011,06,17,15,47,17.40
2011,06,17,15,48,17.40
2011,06,17,15,49,17.40
2011,06,17,15,50,17.40
2011,06,17,15,51,17.40
2011,06,17,15,52,17.40
2011,06,17,15,53,17.40
2011,06,17,15,54,17.40
2011,06,17,15,55,17.40
2011,06,17,15,56,17.40
2011,06,17,15,57,17.30
2011,06,17,15,58,17.40
2011,06,17,15,59,17.40
2011,06,17,16,00,17.40
2011,06,17,16,01,17.40
2011,06,17,16,02,17.40
2011,06,17,16,03,17.30
2011,06,17,16,04,17.30
2011,06,17,16,05,17.20
2011,06,17,16,06,17.10
2011,06,17,16,07,17.00
2011,06,17,16,08,16.90
2011,06,17,16,09,16.90
2011,06,17,16,10,16.80
2011,06,17,16,11,16.80
2011,06,17,16,12,16.80
2011,06,17,16,13,16.80
2011,06,17,16,14,16.80
2011,06,17,16,15,16.80
2011,06,17,16,16,16.80
2011,06,17,16,17,16.90
2011,06,17,16,18,16.90
2011,06,17,16,19,16.90
2011,06,17,16,20,17.00
2011,06,17,16,21,17.00
2011,06,17,16,22,17.00
2011,06,17,16,23,17.00
2011,06,17,16,24,16.90
2011,06,17,16,25,16.90
2011,06,17,16,26,16.90
2011,06,17,16,27,16.90
2011,06,17,16,28,16.90
2011,06,17,16,29,16.90
2011,06,17,16,30,16.90
2011,06,17,16,31,16.90
2011,06,17,16,32,16.90
2011,06,17,16,33,16.90
2011,06,17,16,34,16.90
2011,06,17,16,35,16.90
2011,06,17,16,36,16.90
2011,06,17,16,37,16.90
2011,06,17,16,38,16.90
2011,06,17,16,39,16.90
2011,06,17,16,40,16.90
2011,06,17,16,41,16.90
2011,06,17,16,42,16.90
2011,06,17,16,43,16.90
2011,06,17,16,44,16.90
2011,06,17,16,45,16.80
2011,06,17,16,46,16.80
2011,06,17,16,47,16.80
2011,06,17,16,48,16.70
2011,06,17,16,49,16.70
2011,06,17,16,50,16.70
2011,06,17,16,51,16.60
2011,06,17,16,52,16.60
2011,06,17,16,53,16.60
2011,06,17,16,54,16.60
2011,06,17,16,55,16.60
2011,06,17,16,56,16.60
2011,06,17,16,57,16.60
2011,06,17,16,58,16.60
2011,06,17,16,59,16.60
2011,06,17,17,00,16.60
2011,06,17,17,01,16.60
2011,06,17,17,02,16.60
2011,06,17,17,03,16.60
2011,06,17,17,04,16.60
2011,06,17,17,05,16.60
2011,06,17,17,06,16.60
2011,06,17,17,07,16.60
2011,06,17,17,08,16.70
2011,06,17,17,09,16.70
2011,06,17,17,10,16.70
2011,06,17,17,11,16.70
2011,06,17,17,12,16.70
2011,06,17,17,13,16.70
2011,06,17,17,14,16.80
2011,06,17,17,15,16.80
2011,06,17,17,16,16.80
2011,06,17,17,17,16.90
2011,06,17,17,18,16.90
2011,06,17,17,19,17.00
2011,06,17,17,20,17.00
2011,06,17,17,21,17.10
2011,06,17,17,22,17.10
2011,06,17,17,23,17.10
2011,06,17,17,24,17.20
2011,06,17,17,25,17.20
2011,06,17,17,26,17.20
2011,06,17,17,27,17.30
2011,06,17,17,28,17.30
2011,06,17,17,29,17.30
2011,06,17,17,30,17.40
2011,06,17,17,31,17.40
2011,06,17,17,32,17.50
2011,06,17,17,33,17.50
2011,06,17,17,34,17.60
2011,06,17,17,35,17.60
2011,06,17,17,36,17.60
2011,06,17,17,37,17.70
2011,06,17,17,38,17.70
2011,06,17,17,39,17.70